GW0582 Weather Reports


time (UTC)temp
C
wind
direction
speed
KPH
gust
KPH
rain 1hr
cm
rain 24hr
cm
rain mn
cm
humidity
%
barometer
mb
20260510203528 27 316 6.4 16.1 0.00 0.48 0.00 71 1016.0
20260510203045 27 25 6.4 19.3 0.00 0.48 0.00 71 1015.9
20260510202529 27 334 8.0 19.3 0.00 0.48 0.00 71 1015.9
20260510202026 27 347 8.0 19.3 0.00 0.48 0.00 72 1015.8
20260510201542 27 5 9.7 19.3 0.00 0.48 0.00 72 1015.7
20260510201026 27 288 4.8 20.9 0.00 0.48 0.00 74 1015.8
20260510200526 27 322 11.3 27.4 0.00 0.48 0.00 72 1015.7
20260510200043 27 19 11.3 27.4 0.00 0.48 0.00 74 1015.7
20260510195526 27 345 9.7 22.5 0.00 0.99 0.00 72 1015.6
20260510195027 27 346 8.0 17.7 0.00 0.99 0.00 75 1015.6
20260510194542 27 30 6.4 17.7 0.00 0.99 0.00 75 1015.7
20260510194027 27 4 8.0 16.1 0.00 0.99 0.00 74 1015.8
20260510193527 28 351 4.8 16.1 0.00 0.99 0.00 76 1015.8
20260510193101 27 308 1.6 17.7 0.00 0.99 0.00 75 1015.8
20260510192527 27 15 8.0 17.7 0.00 0.99 0.00 75 1015.9
20260510192027 27 342 8.0 19.3 0.00 0.99 0.00 74 1015.9
20260510191543 27 10 3.2 19.3 0.00 0.99 0.00 76 1016.0
20260510191027 27 25 9.7 19.3 0.00 0.99 0.00 75 1016.1
20260510190526 27 35 6.4 17.7 0.00 0.99 0.00 74 1016.2
20260510190044 27 9 6.4 17.7 0.00 0.99 0.00 75 1016.2
20260510185529 27 336 11.3 17.7 0.00 1.73 0.00 74 1016.2
20260510185027 27 338 4.8 17.7 0.00 1.73 0.00 75 1016.1
20260510184542 27 330 8.0 24.1 0.00 1.73 0.00 75 1016.1
20260510184028 27 339 4.8 24.1 0.00 1.73 0.00 76 1016.3
20260510183527 27 27 8.0 19.3 0.00 1.73 0.00 74 1016.2
20260510183047 27 345 6.4 22.5 0.00 1.73 0.00 74 1016.3
20260510182527 27 38 6.4 22.5 0.00 1.73 0.00 74 1016.4
20260510182026 28 3 8.0 22.5 0.00 1.73 0.00 74 1016.5
20260510181543 28 323 6.4 16.1 0.00 1.73 0.00 74 1016.5
20260510181027 27 0 1.6 16.1 0.00 1.73 0.00 75 1016.4
20260510180527 28 352 6.4 16.1 0.00 1.73 0.00 71 1016.5
20260510180056 28 0 1.6 8.0 0.00 1.73 0.00 74 1016.7
20260510175527 28 0 0.0 9.7 0.00 2.46 0.00 73 1016.7
20260510175028 28 0 0.0 11.3 0.00 2.46 0.00 75 1016.8
20260510174543 28 327 3.2 11.3 0.00 2.46 0.00 75 1016.8
20260510174029 28 1 3.2 11.3 0.00 2.46 0.00 74 1016.9
20260510173526 27 72 1.6 9.7 0.00 2.46 0.00 75 1017.0
20260510173042 28 309 1.6 9.7 0.00 2.46 0.00 73 1017.1
20260510172527 27 0 3.2 8.0 0.00 2.46 0.00 77 1017.1
20260510172027 27 44 0.0 8.0 0.00 2.46 0.00 77 1017.2
20260510171541 27 13 1.6 14.5 0.00 2.46 0.00 77 1017.2
20260510171026 27 353 6.4 14.5 0.00 2.46 0.00 76 1017.1
20260510170526 27 16 1.6 9.7 0.00 2.46 0.00 79 1017.1
20260510170041 27 0 1.6 11.3 0.00 2.46 0.00 78 1017.1
20260510165526 27 309 4.8 11.3 0.00 2.84 0.00 78 1017.3
20260510165029 27 0 0.0 8.0 0.00 2.84 0.00 79 1017.3
20260510164553 27 0 0.0 8.0 0.00 2.84 0.00 78 1017.5
20260510164026 27 0 0.0 4.8 0.00 2.84 0.00 80 1017.5
20260510163527 26 0 0.0 6.4 0.00 2.84 0.00 82 1017.5
20260510163048 26 0 0.0 6.4 0.00 2.84 0.00 81 1017.6
20260510162526 26 0 0.0 11.3 0.00 2.84 0.00 83 1017.6
20260510162026 25 0 3.2 11.3 0.00 2.84 0.00 86 1017.6
20260510161548 25 166 4.8 11.3 0.00 2.84 0.00 83 1017.6
20260510161027 26 70 0.0 6.4 0.00 2.84 0.00 87 1017.6
20260510160527 26 0 0.0 6.4 0.00 2.84 0.00 88 1017.5
20260510160056 25 0 0.0 6.4 0.00 2.84 0.00 90 1017.4
20260510155531 25 1 0.0 11.3 0.00 3.53 0.00 91 1017.4
20260510155026 25 0 1.6 11.3 0.00 3.53 0.00 92 1017.4
20260510154557 24 0 1.6 11.3 0.00 3.53 0.00 93 1017.3
20260510154026 24 0 3.2 11.3 0.00 3.53 0.00 94 1017.3
20260510153526 23 1 0.0 11.3 0.00 3.53 0.00 97 1017.3
20260510153040 23 0 4.8 11.3 0.00 3.53 0.00 99 1017.4
20260510152527 22 0 4.8 9.7 0.00 3.53 0.00 100 1017.5
20260510152028 23 0 0.0 6.4 0.00 3.53 0.00 100 1017.3
20260510151547 22 0 0.0 6.4 0.00 3.53 0.00 100 1017.3
20260510151027 22 56 0.0 6.4 0.00 3.53 0.00 100 1017.4
20260510150527 22 41 0.0 4.8 0.00 3.53 0.00 100 1017.4
20260510150050 22 326 0.0 4.8 0.00 3.53 0.00 100 1017.6
20260510145526 22 53 1.6 4.8 0.00 4.22 0.00 100 1017.6
20260510145027 21 0 0.0 6.4 0.00 4.22 0.00 100 1017.6
20260510144542 21 0 0.0 6.4 0.00 4.22 0.00 100 1017.6
20260510144027 21 0 0.0 6.4 0.00 4.22 0.00 100 1017.7
20260510143526 21 147 0.0 6.4 0.00 4.22 0.00 100 1017.7
20260510143047 21 0 0.0 6.4 0.00 4.22 0.00 100 1017.7
20260510142526 21 0 0.0 6.4 0.00 4.22 0.00 100 1017.8
20260510142026 20 142 0.0 8.0 0.00 4.22 0.00 100 1017.8
20260510141543 20 0 0.0 8.0 0.00 4.22 0.00 100 1017.8
20260510141028 20 191 1.6 6.4 0.00 4.22 0.00 100 1017.8
20260510140526 20 0 0.0 4.8 0.00 4.22 0.00 100 1017.8
20260510140045 20 136 0.0 4.8 0.00 4.22 0.00 100 1017.7
20260510135526 20 354 1.6 4.8 0.00 6.63 0.00 100 1017.6
20260510135026 20 0 0.0 3.2 0.00 6.63 0.00 100 1017.5
20260510134542 20 0 0.0 4.8 0.00 6.63 0.00 100 1017.4
20260510134025 20 0 0.0 6.4 0.00 6.63 0.00 100 1017.5
20260510133530 20 17 0.0 6.4 0.00 6.63 0.00 100 1017.5
20260510133047 20 0 0.0 1.6 0.00 6.63 0.00 100 1017.3
20260510132530 19 0 0.0 1.6 0.00 6.63 0.00 100 1017.2
20260510132029 19 0 0.0 1.6 0.00 6.63 0.00 100 1017.2
20260510131544 19 0 0.0 4.8 0.00 6.63 0.00 100 1017.1
20260510131030 19 0 1.6 4.8 0.00 6.63 0.00 100 1017.1
20260510130530 19 132 0.0 3.2 0.00 6.63 0.00 100 1017.1
20260510130045 19 0 0.0 1.6 0.00 6.63 0.00 100 1017.0
20260510125529 19 0 0.0 1.6 0.00 8.64 0.00 100 1016.9
20260510125029 18 0 0.0 3.2 0.00 8.64 0.00 100 1016.8
20260510124607 18 0 0.0 3.2 0.00 8.64 0.00 100 1016.8
20260510124030 18 0 0.0 1.6 0.00 8.64 0.00 100 1016.7
20260510123531 18 113 0.0 1.6 0.00 8.64 0.00 100 1016.7
20260510123049 18 0 0.0 3.2 0.00 8.64 0.00 100 1016.7
20260510122531 18 0 0.0 3.2 0.00 8.64 0.00 100 1016.7
20260510122030 18 0 0.0 3.2 0.00 8.64 0.00 100 1016.7
20260510121547 18 0 0.0 1.6 0.00 8.64 0.00 100 1016.6
20260510121031 18 0 0.0 1.6 0.00 8.64 0.00 100 1016.5
20260510120534 18 0 0.0 3.2 0.00 8.64 0.00 100 1016.4
20260510120047 18 0 0.0 4.8 0.00 8.64 0.00 100 1016.3
20260510115530 18 0 0.0 6.4 0.00 8.64 0.00 100 1016.1
20260510115030 18 359 0.0 6.4 0.00 8.64 0.00 100 1016.0
20260510114544 18 318 0.0 6.4 0.00 8.64 0.00 100 1015.9
20260510114029 18 0 0.0 4.8 0.00 8.64 0.00 100 1015.9
20260510113530 18 0 0.0 4.8 0.00 8.64 0.00 100 1015.8
20260510113045 18 0 0.0 4.8 0.00 8.64 0.00 100 1015.6
20260510112531 18 0 0.0 6.4 0.00 8.64 0.00 100 1015.5
20260510112033 18 338 3.2 6.4 0.00 8.64 0.00 100 1015.4
20260510111602 18 0 0.0 3.2 0.00 8.64 0.00 100 1015.2
20260510111030 18 0 0.0 3.2 0.00 8.64 0.00 100 1015.1
20260510110529 18 0 0.0 4.8 0.00 8.64 0.00 100 1014.9
20260510110049 18 327 1.6 4.8 0.00 8.64 0.00 100 1015.0
20260510105530 18 39 0.0 3.2 0.00 8.64 0.00 100 1014.9
20260510105030 18 0 0.0 3.2 0.00 8.64 0.00 100 1014.6
20260510104602 18 117 0.0 3.2 0.00 8.64 0.00 100 1014.6
20260510104030 18 0 0.0 3.2 0.00 8.64 0.00 100 1014.6
20260510103530 18 0 0.0 1.6 0.00 8.64 0.00 100 1014.4
20260510103044 18 0 0.0 1.6 0.00 8.64 0.00 100 1014.3
20260510102530 18 0 0.0 1.6 0.00 8.64 0.00 100 1014.3
20260510102029 18 125 0.0 1.6 0.00 8.64 0.00 100 1014.1
20260510101545 18 0 0.0 1.6 0.00 8.64 0.00 100 1014.1
20260510101029 18 0 0.0 1.6 0.00 8.64 0.00 100 1014.1
20260510100532 18 0 0.0 1.6 0.00 8.64 0.00 100 1014.0
20260510100042 18 0 0.0 1.6 0.00 8.64 0.00 100 1014.0
20260510095530 18 0 0.0 1.6 0.00 11.51 0.00 100 1014.0
20260510095031 18 0 0.0 1.6 0.00 11.51 0.00 100 1014.0
20260510094546 18 0 0.0 1.6 0.00 11.51 0.00 100 1014.0
20260510094029 18 179 0.0 6.4 0.00 11.51 0.00 100 1014.0
20260510093530 18 0 1.6 9.7 0.00 11.51 0.00 100 1014.0
20260510093041 18 0 3.2 9.7 0.00 11.51 0.00 100 1013.9
20260510092531 18 195 1.6 11.3 0.00 11.51 0.00 100 1013.9
20260510092029 18 177 1.6 11.3 0.00 11.51 0.00 100 1013.9
20260510091554 18 163 1.6 8.0 0.00 11.51 0.00 100 1013.9
20260510091030 18 166 3.2 8.0 0.00 11.51 0.00 100 1014.0
20260510090530 18 198 3.2 6.4 0.00 11.51 0.00 100 1013.9
20260510090100 18 209 3.2 6.4 0.00 11.51 0.00 100 1014.0
20260510085529 18 162 3.2 6.4 0.00 12.50 0.00 100 1013.9
20260510085030 18 161 0.0 6.4 0.00 12.50 0.00 100 1013.8
20260510084553 18 143 1.6 6.4 0.00 12.50 0.00 100 1013.8
20260510084030 18 167 3.2 4.8 0.00 12.50 0.00 100 1013.8
20260510083530 18 0 0.0 3.2 0.00 12.50 0.00 100 1013.7
20260510083042 18 148 0.0 3.2 0.00 12.50 0.00 100 1013.7
20260510082529 18 0 0.0 1.6 0.00 12.50 0.00 100 1013.6
20260510082029 18 0 0.0 3.2 0.00 12.50 0.00 100 1013.6
20260510081545 18 155 0.0 3.2 0.00 12.50 0.00 100 1013.5
20260510081030 18 131 0.0 1.6 0.00 12.50 0.00 100 1013.6
20260510080529 18 0 0.0 0.0 0.00 12.50 0.00 100 1013.5
20260510080041 18 0 0.0 3.2 0.00 12.50 0.00 100 1013.4
20260510075529 18 0 0.0 3.2 0.00 12.50 0.00 100 1013.4
20260510075030 18 0 0.0 3.2 0.00 12.50 0.00 100 1013.5
20260510074547 18 139 0.0 3.2 0.00 12.50 0.00 100 1013.4
20260510074030 18 0 0.0 3.2 0.00 12.50 0.00 100 1013.4
20260510073528 18 124 0.0 3.2 0.00 12.50 0.00 100 1013.2
20260510073044 18 0 0.0 3.2 0.00 12.50 0.00 100 1013.2
20260510072526 18 0 0.0 8.0 0.00 12.50 0.00 100 1013.2
20260510072030 18 0 0.0 8.0 0.00 12.50 0.00 100 1013.3
20260510071543 18 183 1.6 8.0 0.00 12.50 0.00 100 1013.3
20260510071029 18 184 3.2 8.0 0.00 12.50 0.00 100 1013.3
20260510070530 18 181 1.6 8.0 0.00 12.50 0.00 100 1013.4
20260510070048 18 174 1.6 9.7 0.00 12.50 0.00 100 1013.4
20260510065530 18 149 1.6 9.7 0.00 12.50 0.00 100 1013.5
20260510065029 18 165 1.6 8.0 0.00 12.50 0.00 100 1013.4
20260510064557 18 155 1.6 6.4 0.00 12.50 0.00 100 1013.4
20260510064029 18 180 3.2 6.4 0.00 12.50 0.00 100 1013.4
20260510063531 18 158 0.0 3.2 0.00 12.50 0.00 100 1013.5
20260510063046 18 0 0.0 1.6 0.00 12.50 0.00 100 1013.5
20260510062529 19 150 0.0 1.6 0.00 12.50 0.00 100 1013.5
20260510062029 19 0 0.0 1.6 0.00 12.50 0.00 100 1013.5
20260510061547 19 0 0.0 1.6 0.00 12.50 0.00 100 1013.5
20260510061027 19 0 0.0 0.0 0.00 12.50 0.00 100 1013.6
20260510060530 19 0 0.0 0.0 0.00 12.50 0.00 100 1013.6
20260510060046 19 0 0.0 0.0 0.00 12.50 0.00 100 1013.7
20260510055530 19 0 0.0 4.8 0.00 12.78 0.00 100 1013.7
20260510055030 18 0 0.0 4.8 0.00 12.78 0.00 100 1013.6
20260510054543 18 107 0.0 0.0 0.00 12.78 0.00 100 1013.4
20260510054029 18 0 0.0 1.6 0.00 12.78 0.00 100 1013.4
20260510053529 18 0 0.0 1.6 0.00 12.78 0.00 100 1013.5
20260510053042 18 0 0.0 1.6 0.00 12.78 0.00 100 1013.5
20260510052529 18 0 0.0 1.6 0.00 12.78 0.00 100 1013.7
20260510052029 19 0 0.0 1.6 0.00 12.78 0.00 100 1013.8
20260510051541 19 0 0.0 0.0 0.00 12.78 0.00 100 1013.7
20260510051029 19 0 0.0 3.2 0.00 12.78 0.00 100 1013.7
20260510050530 19 0 0.0 3.2 0.00 12.78 0.00 100 1013.8
20260510050043 19 0 0.0 3.2 0.00 12.78 0.00 100 1013.7
20260510045529 19 0 0.0 3.2 0.00 12.78 12.78 100 1013.5
20260510045030 19 0 0.0 3.2 0.00 12.78 12.78 100 1013.5
20260510044545 19 0 0.0 3.2 0.00 12.78 12.78 100 1013.5
20260510044029 19 2 1.6 3.2 0.00 12.78 12.78 100 1013.5
20260510043529 19 0 0.0 3.2 0.00 12.78 12.78 100 1013.6
20260510043043 19 0 0.0 3.2 0.00 12.78 12.78 100 1013.7
20260510042529 19 0 0.0 3.2 0.00 12.78 12.78 100 1013.6
20260510042029 19 81 0.0 1.6 0.00 12.78 12.78 100 1013.6
20260510041550 19 0 0.0 3.2 0.00 12.78 12.78 100 1013.4
20260510041030 19 0 0.0 3.2 0.00 12.78 12.78 100 1013.4
20260510040530 19 0 0.0 3.2 0.00 12.78 12.78 100 1013.4
20260510040044 19 0 0.0 0.0 0.00 12.78 12.78 100 1013.9
20260510035529 19 0 0.0 0.0 0.00 12.78 12.78 100 1013.9
20260510035029 20 0 0.0 4.8 0.00 12.78 12.78 100 1014.1
20260510034545 20 0 0.0 4.8 0.00 12.78 12.78 100 1014.1
20260510034029 20 149 1.6 4.8 0.00 12.78 12.78 100 1014.5
20260510033529 20 153 1.6 4.8 0.00 12.78 12.78 100 1014.5
20260510033042 20 0 0.0 3.2 0.00 12.78 12.78 100 1014.3
20260510032529 20 0 1.6 3.2 0.00 12.78 12.78 100 1014.3
20260510032028 20 0 0.0 0.0 0.00 12.78 12.78 100 1014.1
20260510031548 20 0 0.0 0.0 0.00 12.78 12.78 100 1014.1
20260510031026 20 0 0.0 0.0 0.00 12.78 12.78 100 1014.0
20260510030530 20 0 0.0 0.0 0.00 12.78 12.78 100 1014.0
20260510030056 20 0 0.0 1.6 0.00 12.78 12.78 100 1014.0
20260510025530 20 0 0.0 1.6 0.00 12.78 12.78 100 1014.2
20260510025033 20 0 0.0 1.6 0.00 12.78 12.78 100 1014.4
20260510024550 20 0 0.0 3.2 0.00 12.78 12.78 100 1014.2
20260510024030 20 0 0.0 9.7 0.00 12.78 12.78 100 1014.1
20260510023530 20 148 6.4 9.7 0.03 12.78 12.78 100 1014.2
20260510023042 20 141 4.8 9.7 0.08 12.78 12.78 100 1014.1
20260510022530 20 134 3.2 9.7 0.10 12.78 12.78 100 1014.0
20260510022030 20 60 3.2 14.5 0.10 12.78 12.78 100 1013.5
20260510021542 20 43 4.8 14.5 0.10 12.78 12.78 100 1013.1
20260510021031 20 49 3.2 11.3 0.10 12.78 12.78 100 1013.0
20260510020529 20 61 6.4 11.3 0.13 12.78 12.78 100 1012.8
20260510020041 20 25 3.2 8.0 0.13 12.78 12.78 100 1012.6
20260510015529 20 0 0.0 8.0 0.13 12.78 12.78 100 1012.7
20260510015029 20 38 1.6 8.0 0.13 12.78 12.78 100 1012.4
20260510014544 20 0 1.6 8.0 0.13 12.78 12.78 100 1012.4
20260510014029 20 322 1.6 8.0 0.15 12.78 12.78 100 1012.5
20260510013527 20 323 1.6 4.8 0.13 12.75 12.75 100 1012.7
20260510013051 20 319 1.6 4.8 0.08 12.70 12.70 100 1012.9
20260510012527 20 0 0.0 8.0 0.05 12.65 12.65 100 1013.3
20260510012027 20 134 1.6 8.0 0.05 12.65 12.65 100 1013.5
20260510011542 20 117 4.8 8.0 0.05 12.65 12.65 100 1013.4
20260510011026 20 66 0.0 8.0 0.05 12.65 12.65 100 1012.8
20260510010526 20 38 1.6 8.0 0.03 12.65 12.65 100 1012.8
20260510010041 20 26 3.2 8.0 0.03 12.65 12.65 100 1012.6
20260510005527 20 310 0.0 4.8 0.05 12.75 12.65 100 1012.6
20260510005029 20 0 0.0 1.6 0.08 12.75 12.65 100 1013.0
20260510004540 20 0 0.0 6.4 0.08 12.75 12.65 100 1012.7
20260510004029 20 0 1.6 6.4 0.08 12.73 12.60 100 1012.5
20260510003538 20 0 0.0 9.7 0.13 12.73 12.60 100 1012.9
20260510003056 20 0 0.0 9.7 0.13 12.73 12.60 100 1012.8
20260510002530 20 15 4.8 9.7 0.13 12.73 12.60 100 1012.8
20260510002029 19 0 0.0 3.2 0.13 12.73 12.60 100 1012.5
20260510001549 19 0 1.6 3.2 0.15 12.73 12.60 100 1012.8
20260510001026 19 0 0.0 1.6 0.15 12.73 12.60 100 1012.5
20260510000526 19 0 0.0 1.6 0.15 12.73 12.60 100 1013.0
20260510000046 19 84 0.0 1.6 0.15 12.73 12.60 100 1013.1
20260509235527 19 0 0.0 0.0 0.13 12.85 12.60 100 1013.0
20260509235027 19 0 0.0 0.0 0.10 12.83 12.55 100 1013.2
20260509234601 19 0 0.0 0.0 0.10 12.83 12.55 100 1013.2
20260509234029 19 0 0.0 0.0 0.08 12.80 12.55 100 1013.3
20260509233526 19 0 0.0 0.0 0.03 12.75 12.50 100 1013.5
20260509233046 19 0 0.0 1.6 0.03 12.75 12.50 100 1013.4
20260509232530 19 0 0.0 1.6 0.05 12.75 12.50 100 1013.4
20260509232030 19 0 0.0 3.2 0.05 12.75 12.50 100 1013.1
20260509231602 19 0 0.0 3.2 0.03 12.73 12.47 100 1013.4
20260509231027 19 0 0.0 3.2 0.03 12.73 12.47 100 1013.4
20260509230527 19 0 0.0 3.2 0.05 12.73 12.47 100 1013.1
20260509230041 19 77 0.0 3.2 0.05 12.73 12.47 100 1012.8
20260509225529 19 0 0.0 3.2 0.08 12.95 12.47 100 1012.5
20260509225029 19 0 0.0 3.2 0.08 12.95 12.47 100 1012.3
20260509224546 19 0 0.0 3.2 0.08 12.95 12.47 100 1012.1
20260509224027 19 144 0.0 3.2 0.08 12.95 12.47 100 1011.9
20260509223527 19 0 0.0 0.0 0.08 12.95 12.47 100 1011.9
20260509223045 19 0 0.0 3.2 0.08 12.95 12.47 100 1011.8
20260509222526 19 0 0.0 3.2 0.05 12.93 12.45 100 1012.0
20260509222028 19 6 0.0 8.0 0.05 12.93 12.45 100 1012.2
20260509221544 19 0 3.2 11.3 0.05 12.93 12.45 100 1012.4
20260509221029 19 0 6.4 11.3 0.03 12.90 12.42 100 1012.6
20260509220526 19 39 1.6 8.0 0.03 12.90 12.42 100 1012.8
20260509220043 19 20 3.2 8.0 0.00 12.88 12.40 100 1012.7
20260509215527 19 41 4.8 8.0 0.00 13.67 12.40 100 1012.7
20260509215026 19 58 0.0 8.0 0.00 13.67 12.40 100 1012.7
20260509214542 19 60 1.6 8.0 0.00 13.67 12.40 100 1012.7
20260509214026 19 357 0.0 4.8 0.00 13.67 12.40 100 1012.5
20260509213526 19 0 0.0 4.8 0.00 13.67 12.40 100 1012.3
20260509213049 19 0 0.0 6.4 0.00 13.67 12.40 100 1011.9
20260509212530 19 0 1.6 9.7 0.03 13.67 12.40 100 1011.6
20260509212026 19 72 4.8 9.7 0.03 13.67 12.40 100 1011.2
20260509211555 19 32 3.2 9.7 0.03 13.67 12.40 100 1011.2
20260509211029 19 40 3.2 9.7 0.05 13.67 12.40 100 1011.2
20260509210526 19 48 3.2 8.0 0.08 13.67 12.40 100 1011.2
20260509210058 19 0 0.0 8.0 0.10 13.67 12.40 100 1011.3
20260509205529 19 39 1.6 8.0 0.13 14.20 12.40 100 1011.1
20260509205027 19 0 3.2 6.4 0.18 14.20 12.40 100 1011.3
20260509204544 19 0 0.0 4.8 0.20 14.20 12.40 100 1011.5
20260509204029 19 41 0.0 4.8 0.23 14.20 12.40 100 1011.8